This demonstration page uses our WeatherBlox Daily Observations layout. Learn more.

Left ArrowRight Arrow

41.86663, -103.66717

Hourly Observations for April 22, 2018

Temp ( °F °C ) Dew Point ( °F °C ) Humidity (%) Winds ( mph kmh ) Pressure ( in mb ) Visibility ( mi km ) Precip ( " mm )
12:53 am 00:53 Clear 34 1.1 34 1.1 100 100 ESE 10 17 30.22 1023 7 11 N/A
1:42 am 01:42 Partly Cloudy with Mist and Fog 33 0.6 33 0.6 100 100 ESE 8 13 30.27 1025 6 10 N/A
1:53 am 01:53 Mostly Clear with Mist and Fog 33 0.6 33 0.6 100 100 E 8 13 30.19 1023 5 8 N/A
2:53 am 02:53 Clear 33 0.6 33 0.6 100 100 E 8 13 30.19 1022 7 11 N/A
3:53 am 03:53 Clear 33 0.6 33 0.6 100 100 E 8 13 30.18 1022 7 11 N/A
4:53 am 04:53 Clear 33 0.6 33 0.6 100 100 E 8 13 30.18 1022 7 11 N/A
5:53 am 05:53 Clear with Mist and Fog 32 undefined 32 undefined 100 100 E 8 13 30.19 1022 5 8 N/A
6:53 am 06:53 Sunny with Mist and Fog 34 1.1 34 1.1 100 100 E 7 11 30.20 1023 3 5 N/A
7:37 am 07:37 Partly Cloudy with Mist and Fog 36 2.2 36 2.2 100 100 E 7 11 30.24 1024 3 4 N/A
7:41 am 07:41 Mostly Cloudy with Mist and Fog 35 1.7 35 1.7 100 100 E 7 11 30.24 1024 1 2 N/A
7:49 am 07:49 Mostly Cloudy with Fog 36 2 36 2 100 100 E 6 9 30.24 1024 1 1 N/A
7:53 am 07:53 Mostly Cloudy with Fog 36 2.2 36 2.2 100 100 E 7 11 30.22 1024 0 0 N/A
8:14 am 08:14 Cloudy with Fog 37 2.8 37 2.8 100 100 E 6 9 30.27 1025 1 1 N/A
8:22 am 08:22 Cloudy with Mist and Fog 37 3 37 3 100 100 ESE 5 7 30.27 1025 2 3 N/A
8:30 am 08:30 Cloudy with Mist and Fog 38 3.3 38 3.3 100 100 ESE 7 11 30.27 1025 5 8 N/A
8:53 am 08:53 Cloudy 41 5 41 5 100 100 ESE 6 9 30.22 1023 7 11 N/A
9:00 am 09:00 Cloudy 41 5 40 4.4 96 96 ESE 6 9 30.24 1024 8 13 N/A
9:53 am 09:53 Cloudy 43 6.1 40 4.4 89 89 E 5 7 30.22 1023 10 16 N/A
10:06 am 10:06 Cloudy 45 7 39 4 81 81 N N/A 30.21 1023 10 16 N/A
10:53 am 10:53 Cloudy 46 7.8 41 5 83 83 W 5 7 30.22 1024 10 16 N/A
11:26 am 11:26 Partly Cloudy 48 9 43 6 82 82 N N/A 30.18 1022 10 16 N/A
11:53 am 11:53 Mostly Sunny 51 10.6 44 6.7 77 77 undefined N/A 30.20 1023 10 16 N/A
12:53 pm 12:53 Sunny 54 12.2 42 5.6 64 64 VRB 3 6 30.17 1022 10 16 N/A
1:53 pm 13:53 Sunny 58 14.4 42 5.6 56 56 N N/A 30.13 1020 10 16 N/A
2:53 pm 14:53 Sunny 61 16.1 42 5.6 50 50 VRB 5 7 30.10 1019 10 16 N/A
3:53 pm 15:53 Sunny 62 16.7 41 5 46 46 undefined N/A 30.08 1019 10 16 N/A
4:53 pm 16:53 Sunny 63 17.2 38 3.3 40 40 E 6 9 30.07 1018 10 16 N/A
5:53 pm 17:53 Sunny 62 16.7 38 3.3 41 41 SE 7 11 30.06 1018 10 16 N/A
6:53 pm 18:53 Sunny 60 15.6 39 3.9 46 46 SE 10 17 30.07 1018 10 16 N/A
7:53 pm 19:53 Clear 54 12.2 43 6.1 67 67 ESE 12 19 30.08 1019 10 16 N/A
8:53 pm 20:53 Clear 49 9.4 43 6.1 80 80 ESE 12 19 30.11 1020 10 16 N/A
9:53 pm 21:53 Clear 45 7.2 42 5.6 90 90 ESE 10 17 30.13 1020 10 16 N/A
10:53 pm 22:53 Clear 43 6.1 40 4.4 89 89 ESE 9 15 30.13 1020 10 16 N/A
11:53 pm 23:53 Clear 42 5.6 40 4.4 92 92 ESE 12 19 30.12 1020 10 16 N/A

Powered by AerisWeather